Powrót do katalogu

COSMOS 1823 DEB

AktywnyLEO
NORAD 18800·DEBRIS·🇷🇺 Russia

Wystrzelony Feb 20, 1987 z Plesetsk Cosmodrome

Loading…

Następne Przeloty (najbliższe 24 godziny)

TLE

ŚwieżeSource: Space-Track

Epoka: Sep 14, 2026, 12:38 UTC

1 18800U 87020AL  26257.52669465 -.00000023  00000-0 -39527-4 0  9996
2 18800  73.5945   7.4733 0052463 243.1927 248.6740 12.39027260751831

Śledź COSMOS 1823 DEB w czasie rzeczywistym z AllMySat

Download on the App Store